Date,TemperatureHighF,TemperatureAvgF,TemperatureLowF,DewpointHighF,DewpointAvgF,DewpointLowF,HumidityHigh,HumidityAvg,HumidityLow,PressureMaxIn,PressureMinIn,WindSpeedMaxMPH,WindSpeedAvgMPH,GustSpeedMaxMPH,PrecipitationSumIn
2013-1-1,45,40,33,42,35,20,95,82,47,26.37,26.26,15,2,20,0.03
2013-1-2,40,35,32,38,32,28,94,88,78,26.40,26.23,17,5,21,0.00
2013-1-3,32,30,26,31,24,-100,95,83,68,26.48,26.36,14,-17,20,0.00
2013-1-4,34,27,23,19,15,10,77,64,36,26.54,26.46,22,8,31,0.00
2013-1-5,47,32,21,28,18,4,82,59,17,26.59,26.46,21,3,27,0.00
2013-1-6,44,36,31,33,28,24,90,76,54,26.46,26.33,16,6,30,0.00
2013-1-7,44,32,24,25,22,20,86,69,42,26.64,26.44,15,4,24,0.00
2013-1-8,49,30,18,34,17,-100,90,72,36,26.66,26.59,6,-52,8,0.00
2013-1-9,56,44,29,49,39,-100,96,85,67,26.75,26.65,10,-8,16,0.00
2013-1-10,52,47,39,50,44,33,98,90,63,26.79,26.66,9,1,13,0.00
2013-1-11,50,46,41,50,45,37,99,96,77,26.66,26.47,9,2,15,0.08
2013-1-12,66,55,47,57,52,47,100,91,65,26.53,26.46,9,1,15,0.00
2013-1-13,63,57,53,54,51,48,91,82,62,26.47,26.41,12,4,21,0.00
2013-1-14,56,54,44,56,53,41,98,96,90,26.49,26.41,14,2,22,1.21
2013-1-15,48,44,40,47,43,39,97,96,93,26.47,26.34,6,1,9,1.15
2013-1-16,58,49,45,49,46,44,98,91,63,26.36,26.30,14,2,18,0.12
2013-1-17,48,39,27,47,37,24,96,93,86,26.45,26.16,19,5,30,1.61
2013-1-18,39,28,23,30,20,-100,92,80,59,26.70,26.46,23,-16,32,0.63
2013-1-19,47,31,20,34,25,11,93,81,25,26.67,26.41,8,1,10,0.00
2013-1-20,45,40,31,30,23,10,92,54,27,26.41,26.34,18,8,26,0.00
2013-1-21,42,34,23,28,18,3,86,54,35,26.36,26.21,20,6,32,0.00
2013-1-22,22,17,13,6,-7,-100,59,38,24,26.39,26.19,20,-23,35,0.00
2013-1-23,36,26,17,23,13,-2,73,57,43,26.47,26.28,17,6,25,0.00
2013-1-24,36,25,15,26,10,-3,69,54,33,26.58,26.21,34,10,40,0.00
2013-1-25,38,22,14,36,16,1,97,78,54,26.59,26.27,17,3,28,0.28
2013-1-26,37,30,24,29,20,-100,87,73,59,26.56,26.30,16,-17,28,0.16
2013-1-27,35,26,17,26,21,14,88,80,62,26.68,26.56,7,1,10,0.00
2013-1-28,58,40,30,42,34,26,94,80,53,26.63,26.52,14,2,17,0.00
2013-1-29,63,49,32,53,42,30,95,79,43,26.54,26.38,10,2,16,0.00
2013-1-30,56,52,41,56,51,35,98,96,79,26.38,25.86,20,6,30,2.96
2013-1-31,39,28,23,35,19,14,88,69,57,26.22,25.88,22,9,36,0.03
2013-2-1,34,19,13,26,8,1,89,62,49,26.48,26.14,23,8,45,0.02
2013-2-2,30,22,14,27,14,3,92,72,46,26.48,26.24,15,2,15,0.06
2013-2-3,31,27,22,25,21,16,86,77,64,26.22,26.14,29,9,42,0.03
2013-2-4,44,30,20,27,18,-100,85,65,39,26.34,26.20,28,-4,38,0.00
2013-2-5,45,15,30,33,-53,-100,83,21,46,26.29,26.21,26,-618,39,0.00
2013-2-6,-200,0,200,-100,-100,-100,0,0,100,26.52,26.28,0,-999,0,0.00
2013-2-7,39,12,33,34,-57,-100,92,25,59,26.53,26.30,3,-662,9,0.06
2013-2-8,42,16,36,41,-46,-100,99,33,55,26.34,26.19,22,-597,35,0.00
2013-2-9,49,16,24,24,-55,-100,74,14,9,26.59,26.33,24,-579,29,0.00
2013-2-10,45,16,30,25,-52,-100,82,19,36,26.62,26.43,22,-601,32,0.00
2013-2-11,51,18,46,49,-48,-100,99,29,38,26.45,26.32,10,-630,17,0.00
2013-2-12,48,16,33,20,-57,-100,59,13,19,26.37,26.24,26,-621,30,0.00
2013-2-13,41,14,35,41,-50,-100,98,34,76,26.23,25.96,14,-630,19,0.00
2013-2-14,46,16,26,25,-51,-100,79,19,23,26.32,26.14,9,-587,18,0.00
2013-2-15,50,16,27,32,-53,-100,95,22,43,26.36,26.25,25,-632,45,0.00
2013-2-16,26,9,22,21,-56,-100,83,28,67,26.27,26.08,20,-628,49,0.00
2013-2-17,26,8,13,8,-55,-100,69,23,42,26.41,26.15,22,-568,36,0.00
2013-2-18,44,16,18,24,-49,-100,85,22,42,26.54,26.41,15,-576,24,0.00
2013-2-19,44,16,33,37,-45,-100,96,32,49,26.40,26.16,51,-573,82,0.03
2013-2-20,37,14,24,8,-57,-100,50,11,18,26.37,26.24,23,-560,40,0.00
2013-2-21,54,20,28,15,-54,-100,29,9,11,26.48,26.34,18,-573,18,0.00
2013-2-22,34,11,30,32,-53,-100,95,33,88,26.49,26.35,3,-641,3,0.00
2013-2-23,52,17,38,47,-48,-100,99,32,76,26.36,26.17,6,-634,10,0.00
2013-2-24,46,18,34,25,-48,-100,69,18,29,26.33,26.17,16,-564,33,0.00
2013-2-25,42,14,28,23,-49,-100,74,25,48,26.40,26.30,5,-578,9,0.00
2013-2-26,31,1,31,30,-97,-100,96,2,96,26.31,25.90,0,-978,0,0.00
2013-2-27,48,18,31,32,-43,-100,81,29,45,26.08,25.94,14,-556,20,0.00
2013-2-28,29,12,27,23,-49,-100,82,32,71,26.12,25.98,25,-579,47,0.00
2013-3-1,31,12,26,24,-50,-100,89,32,69,26.17,26.11,13,-593,20,0.00
2013-3-2,29,11,25,22,-51,-100,83,31,69,26.17,26.09,15,-590,23,0.00
2013-3-3,24,10,16,16,-47,-100,84,34,65,26.19,26.13,23,-532,34,0.01
2013-3-4,45,15,19,14,-51,-100,75,18,18,26.35,26.20,26,-543,32,0.00
2013-3-5,32,1,32,29,-97,-100,87,2,85,26.33,25.93,0,-978,2,0.00
2013-3-6,25,10,20,22,-46,-100,92,38,73,26.33,25.90,35,-541,71,0.00
2013-3-7,27,11,22,22,-46,-100,90,38,81,26.50,26.34,22,-553,29,0.00
2013-3-8,36,14,22,23,-43,-100,83,33,57,26.57,26.46,33,-525,35,0.00
2013-3-9,54,22,21,30,-41,-100,93,22,35,26.58,26.53,10,-530,17,0.00
2013-3-10,56,24,30,35,-37,-100,92,25,40,26.56,26.48,21,-519,38,0.00
2013-3-11,42,1,42,41,-98,-100,96,1,96,26.49,26.21,6,-976,15,0.00
2013-3-12,40,16,34,34,-44,-100,95,34,62,26.31,26.13,23,-563,32,0.00
2013-3-13,33,13,28,26,-49,-100,86,26,51,26.37,26.28,19,-563,30,0.00
2013-3-14,35,13,18,13,-51,-100,73,21,31,26.48,26.35,21,-550,32,0.00
2013-3-15,58,23,36,33,-42,-100,71,20,27,26.42,26.26,16,-545,24,0.00
2013-3-16,67,28,54,42,-37,-100,57,21,38,26.26,26.15,19,-545,26,0.00
2013-3-17,62,22,48,48,-44,-100,83,24,46,26.37,26.26,10,-612,18,0.00
2013-3-18,31,0,31,30,-98,-100,98,1,98,26.37,26.16,2,-988,7,0.00
2013-3-19,47,20,33,27,-43,-100,77,21,29,26.35,26.17,23,-517,32,0.00
2013-3-20,44,18,26,11,-48,-100,46,14,21,26.34,26.13,15,-513,20,0.00
2013-3-21,26,11,15,11,-46,-100,70,28,45,26.18,26.02,27,-488,35,0.00
2013-3-22,42,17,17,15,-47,-100,76,19,24,26.29,26.17,19,-508,33,0.00
2013-3-23,49,18,36,42,-43,-100,90,33,69,26.31,26.21,10,-586,22,0.00
2013-3-24,38,14,32,37,-45,-100,97,40,94,26.23,25.86,6,-584,15,0.11
2013-3-25,26,10,24,23,-50,-100,90,35,70,26.10,25.84,22,-579,33,0.06
2013-3-26,28,17,23,22,-23,-100,82,49,72,26.37,26.09,17,-352,28,0.00
2013-3-27,33,13,23,22,-44,-100,75,32,60,26.48,26.36,22,-517,45,0.02
2013-3-28,42,17,26,25,-41,-100,72,28,49,26.54,26.42,24,-513,40,0.01
2013-3-29,46,19,21,31,-42,-100,87,24,25,26.57,26.49,17,-518,23,0.00
2013-3-30,53,22,32,34,-38,-100,92,27,43,26.50,26.39,8,-519,14,0.00
2013-3-31,52,17,48,47,-52,-100,92,27,76,26.39,26.21,26,-669,80,0.05
2013-4-1,50,22,36,39,-36,-100,94,30,53,26.29,26.21,18,-524,21,0.00
2013-4-2,45,17,30,22,-50,-100,70,18,26,26.43,26.30,19,-562,29,0.00
2013-4-3,52,19,30,19,-48,-100,47,14,24,26.54,26.42,16,-541,22,0.00
2013-4-4,31,6,29,25,-76,-100,85,14,60,26.54,26.25,6,-806,9,0.04
2013-4-5,48,19,34,35,-38,-100,96,34,57,26.39,26.21,26,-528,28,0.00
2013-4-6,58,26,31,33,-32,-100,91,25,33,26.52,26.39,13,-481,16,0.00
2013-4-7,61,32,33,44,-18,-100,92,36,48,26.52,26.44,30,-393,35,0.00
2013-4-8,67,31,37,51,-26,-100,96,31,48,26.51,26.43,27,-491,40,0.00
2013-4-9,74,32,39,53,-29,-100,95,26,38,26.57,26.48,24,-519,32,0.00
2013-4-10,78,30,47,52,-35,-100,92,22,35,26.50,26.38,10,-564,15,0.00
2013-4-11,70,27,48,53,-35,-100,92,28,50,26.39,26.15,10,-564,22,0.00
2013-4-12,63,25,54,55,-37,-100,95,28,34,26.24,26.06,15,-565,22,0.00
2013-4-13,63,29,44,37,-34,-100,71,20,24,26.41,26.21,28,-496,55,0.00
2013-4-14,63,28,34,41,-33,-100,92,23,33,26.45,26.36,13,-503,21,0.00
2013-4-15,52,24,48,51,-29,-100,98,46,95,26.56,26.36,6,-526,11,0.00
2013-4-16,70,32,52,56,-24,-100,98,35,57,26.62,26.55,10,-503,14,0.00
2013-4-17,66,30,55,58,-22,-100,94,41,61,26.64,26.53,15,-493,19,0.06
2013-4-18,66,30,57,56,-24,-100,95,37,61,26.53,26.36,18,-502,22,0.00
2013-4-19,58,1,58,56,-97,-100,92,2,92,26.36,26.15,15,-978,28,0.00
2013-4-20,47,21,32,28,-36,-100,68,26,41,26.59,26.23,28,-483,34,0.00
2013-4-21,51,24,29,34,-34,-100,93,26,38,26.72,26.59,9,-477,16,0.00
2013-4-22,55,24,36,33,-33,-100,86,28,40,26.69,26.55,10,-482,13,0.00
2013-4-23,62,29,31,43,-26,-100,90,30,46,26.58,26.46,10,-468,23,0.00
2013-4-24,66,29,38,55,-27,-100,95,34,53,26.48,26.38,16,-503,18,0.02
2013-4-25,56,26,35,32,-37,-100,84,20,20,26.62,26.42,17,-479,23,0.00
2013-4-26,59,27,46,35,-36,-100,54,20,38,26.70,26.63,16,-519,28,0.00
2013-4-27,53,20,47,47,-42,-100,95,31,64,26.70,26.57,7,-593,9,0.05
2013-4-28,43,0,43,41,-98,-100,91,1,91,26.57,26.37,6,-988,7,0.00
2013-4-29,62,28,49,52,-26,-100,98,37,47,26.41,26.34,8,-504,15,0.00
2013-4-30,64,16,53,56,-58,-100,99,21,62,26.54,26.38,7,-728,13,0.00
2013-5-1,55,23,48,51,-34,-100,96,38,77,26.62,26.53,7,-556,15,0.00
2013-5-2,52,23,46,52,-29,-100,100,47,98,26.64,26.57,5,-525,13,0.03
2013-5-3,52,24,43,46,-29,-100,100,43,74,26.58,26.46,9,-508,15,0.01
2013-5-4,46,17,39,43,-44,-100,99,39,87,26.45,26.34,6,-600,14,0.00
2013-5-5,42,10,40,41,-65,-100,98,24,98,26.36,26.21,8,-748,20,1.05
2013-5-6,58,25,48,50,-29,-100,100,39,54,26.27,26.18,27,-515,32,0.02
2013-5-7,52,22,41,46,-33,-100,96,40,73,26.29,26.23,11,-529,16,0.15
2013-5-8,59,27,45,49,-25,-100,100,41,70,26.41,26.28,11,-492,15,0.00
2013-5-9,68,33,44,50,-21,-100,98,33,43,26.49,26.38,15,-459,21,0.00
2013-5-10,69,30,45,56,-26,-100,96,34,53,26.50,26.38,11,-508,19,0.00
2013-5-11,65,32,53,56,-18,-100,94,43,64,26.39,26.25,10,-461,19,0.12
2013-5-12,51,27,47,42,-27,-100,77,31,46,26.37,26.23,29,-453,30,0.00
2013-5-13,51,26,38,29,-31,-100,69,24,34,26.50,26.38,17,-443,30,0.00
2013-5-14,66,30,34,46,-28,-100,94,25,28,26.54,26.46,17,-471,20,0.00
2013-5-15,79,38,63,56,-21,-100,67,24,34,26.49,26.42,29,-476,52,0.00
2013-5-16,71,37,62,49,-18,-100,58,28,41,26.47,26.38,12,-434,24,0.00
2013-5-17,72,31,50,58,-28,-100,91,30,53,26.51,26.44,9,-529,16,0.01
2013-5-18,58,1,58,58,-97,-100,98,2,98,26.53,26.47,0,-978,0,0.05
2013-5-19,66,27,58,60,-32,-100,98,38,77,26.51,26.43,7,-571,12,0.02
2013-5-20,75,28,58,64,-35,-100,97,31,51,26.54,26.46,17,-587,19,0.00
2013-5-21,76,37,57,63,-15,-100,99,37,51,26.48,26.40,14,-465,19,0.04
2013-5-22,72,30,57,64,-28,-100,98,37,61,26.45,26.35,8,-546,13,0.01
2013-5-23,71,32,57,60,-24,-100,98,33,48,26.39,26.30,11,-503,19,0.00
2013-5-24,56,24,44,49,-36,-100,92,30,48,26.54,26.29,27,-538,56,0.00
2013-5-25,62,31,43,39,-27,-100,72,24,20,26.62,26.55,17,-443,29,0.00
2013-5-26,64,32,46,46,-22,-100,89,30,38,26.62,26.55,19,-443,24,0.00
2013-5-27,69,35,43,57,-15,-100,98,38,58,26.62,26.55,8,-440,16,0.00
2013-5-28,73,37,51,59,-14,-100,95,38,52,26.61,26.55,16,-446,18,0.00
2013-5-29,75,38,56,61,-13,-100,97,37,55,26.62,26.57,8,-446,14,0.00
2013-5-30,74,37,51,60,-14,-100,97,38,53,26.67,26.59,10,-451,13,0.00
2013-5-31,73,38,55,59,-12,-100,95,37,53,26.63,26.55,12,-439,18,0.00
2013-6-1,75,39,57,61,-11,-100,95,38,51,26.56,26.46,14,-434,19,0.00
2013-6-2,66,12,62,62,-70,-100,93,17,85,26.48,26.35,17,-811,36,0.06
2013-6-3,73,36,57,59,-15,-100,98,37,46,26.43,26.32,18,-452,23,0.00
2013-6-4,68,34,59,60,-14,-100,97,46,68,26.52,26.41,9,-456,12,0.00
2013-6-5,67,30,60,61,-25,-100,95,41,79,26.52,26.43,7,-530,12,0.00
2013-6-6,71,37,61,63,-10,-100,99,48,74,26.42,26.25,7,-445,11,0.00
2013-6-7,69,33,61,60,-17,-100,96,44,73,26.29,26.15,16,-477,26,0.01
2013-6-8,71,36,57,62,-15,-100,95,40,59,26.52,26.28,10,-456,13,0.00
2013-6-9,71,35,59,65,-14,-100,97,45,70,26.57,26.49,6,-467,11,0.12
2013-6-10,70,36,62,63,-14,-100,96,41,49,26.48,26.34,16,-454,18,0.07
2013-6-11,72,38,58,58,-12,-100,88,38,57,26.45,26.36,14,-434,22,0.00
2013-6-12,80,43,68,66,-7,-100,80,38,53,26.48,26.40,24,-425,27,0.00
2013-6-13,78,26,69,63,-44,-100,73,21,53,26.40,26.21,26,-646,29,0.00
2013-6-14,66,34,57,52,-17,-100,80,35,52,26.49,26.27,19,-443,32,0.00
2013-6-15,74,37,46,58,-16,-100,98,33,44,26.54,26.48,10,-446,18,0.00
2013-6-16,75,38,55,63,-12,-100,97,39,56,26.54,26.48,7,-446,14,0.00
2013-6-17,73,35,62,65,-16,-100,94,44,68,26.49,26.41,8,-477,15,0.12
2013-6-18,68,35,62,64,-14,-100,96,47,80,26.41,26.28,17,-467,18,0.14
2013-6-19,70,38,53,61,-10,-100,96,43,66,26.56,26.38,5,-431,9,0.00
2013-6-20,69,36,59,62,-11,-100,97,45,71,26.65,26.55,9,-445,14,0.00
2013-6-21,74,38,60,59,-12,-100,95,39,53,26.68,26.63,7,-440,14,0.00
2013-6-22,76,39,52,61,-12,-100,98,36,50,26.65,26.57,7,-436,10,0.00
2013-6-23,74,39,53,65,-12,-100,97,40,58,26.64,26.58,7,-440,9,0.01
2013-6-24,76,35,58,65,-20,-100,97,37,63,26.64,26.56,18,-505,21,0.02
2013-6-25,78,40,58,66,-7,-100,99,47,54,26.59,26.48,13,-425,17,0.19
2013-6-26,77,36,60,67,-16,-100,99,39,61,26.49,26.39,15,-487,30,0.12
2013-6-27,75,40,60,66,-6,-100,92,46,73,26.41,26.25,11,-424,21,0.02
2013-6-28,77,38,65,64,-14,-100,85,38,56,26.29,26.14,13,-466,22,0.06
2013-6-29,76,40,62,60,-13,-100,90,33,41,26.20,26.13,11,-440,16,0.00
2013-6-30,73,35,54,64,-18,-100,97,39,63,26.29,26.18,9,-488,11,0.00
2013-7-1,69,30,61,64,-27,-100,97,39,80,26.41,26.27,7,-551,17,0.21
2013-7-2,69,32,63,64,-20,-100,97,44,77,26.57,26.40,11,-504,15,0.11
2013-7-3,67,23,63,65,-42,-100,98,33,91,26.62,26.55,8,-648,15,0.85
2013-7-4,68,28,62,66,-30,-100,98,41,90,26.65,26.60,6,-572,15,0.83
2013-7-5,74,34,64,65,-19,-100,96,42,69,26.66,26.60,12,-503,15,0.32
2013-7-6,71,32,64,66,-24,-100,97,41,80,26.64,26.56,7,-518,13,0.09
2013-7-7,73,28,65,66,-34,-100,97,34,75,26.61,26.55,13,-598,17,0.00
2013-7-8,76,34,66,65,-25,-100,84,32,58,26.62,26.57,9,-528,17,0.00
2013-7-9,77,35,59,67,-20,-100,98,37,60,26.62,26.55,10,-503,15,0.13
2013-7-10,75,29,61,68,-30,-100,99,37,69,26.58,26.43,7,-578,11,0.27
2013-7-11,71,35,64,65,-16,-100,98,43,77,26.43,26.36,10,-485,13,0.00
2013-7-12,73,34,59,63,-20,-100,100,40,52,26.48,26.36,11,-497,15,0.00
2013-7-13,66,30,60,63,-24,-100,100,44,84,26.56,26.46,8,-530,11,0.03
2013-7-14,70,17,64,67,-58,-100,100,24,89,26.70,26.55,8,-746,14,0.22
2013-7-15,75,40,64,66,-7,-100,95,44,69,26.77,26.71,6,-432,13,0.00
2013-7-16,80,38,58,65,-15,-100,98,37,54,26.76,26.71,12,-477,17,0.07
2013-7-17,77,28,61,69,-34,-100,100,34,74,26.73,26.64,16,-599,24,0.52
2013-7-18,80,39,60,69,-13,-100,99,40,60,26.66,26.55,7,-473,12,0.00
2013-7-19,76,37,62,68,-14,-100,98,43,65,26.59,26.48,7,-478,9,0.00
2013-7-20,73,36,63,66,-12,-100,98,47,73,26.50,26.41,11,-462,17,0.05
2013-7-21,74,37,64,68,-10,-100,100,47,71,26.48,26.41,11,-456,22,0.32
2013-7-22,75,35,63,67,-18,-100,95,40,72,26.44,26.32,8,-498,13,0.00
2013-7-23,75,41,65,64,-6,-100,86,42,56,26.36,26.28,17,-408,22,0.00
2013-7-24,76,57,67,63,28,-100,85,54,56,26.34,26.30,15,-202,20,0.00
2013-7-25,73,36,60,64,-15,-100,96,40,59,26.49,26.34,11,-466,18,0.00
2013-7-26,75,34,56,64,-20,-100,98,38,62,26.53,26.47,8,-498,12,0.00
2013-7-27,70,21,63,64,-48,-100,97,27,80,26.47,26.38,8,-684,9,0.02
2013-7-28,73,34,61,62,-20,-100,98,37,57,26.48,26.36,8,-498,15,0.02
2013-7-29,74,33,58,57,-26,-100,91,28,31,26.62,26.47,11,-510,15,0.00
2013-7-30,69,35,56,63,-16,-100,95,42,70,26.65,26.59,4,-472,11,0.00
2013-7-31,67,30,60,64,-24,-100,96,43,83,26.60,26.43,8,-531,11,0.00
2013-8-1,73,35,63,63,-19,-100,95,38,61,26.43,26.38,13,-496,21,0.00
2013-8-2,75,37,60,64,-15,-100,90,37,56,26.50,26.41,9,-466,12,0.00
2013-8-3,75,38,62,62,-16,-100,96,36,56,26.50,26.44,10,-461,14,0.00
2013-8-4,72,37,65,61,-16,-100,86,35,48,26.50,26.41,21,-458,28,0.00
2013-8-5,74,35,54,64,-19,-100,96,38,65,26.51,26.44,8,-492,12,0.00
2013-8-6,72,34,62,66,-22,-100,96,40,75,26.50,26.41,7,-510,9,0.00
2013-8-7,67,29,65,66,-28,-100,96,41,92,26.52,26.46,7,-561,10,0.14
2013-8-8,74,37,64,67,-12,-100,98,46,75,26.52,26.47,5,-471,9,0.01
2013-8-9,80,39,65,69,-13,-100,96,41,63,26.54,26.47,8,-472,14,0.00
2013-8-10,78,30,67,68,-32,-100,94,32,66,26.58,26.52,11,-588,22,0.32
2013-8-11,79,36,63,67,-17,-100,97,39,64,26.59,26.52,9,-498,15,0.00
2013-8-12,76,39,67,68,-11,-100,92,42,68,26.54,26.46,10,-461,18,0.05
2013-8-13,74,34,66,66,-19,-100,96,40,68,26.44,26.32,13,-503,24,0.01
2013-8-14,66,32,59,55,-22,-100,86,36,59,26.50,26.35,17,-485,21,0.00
2013-8-15,56,22,53,51,-38,-100,87,34,81,26.56,26.48,6,-587,13,0.00
2013-8-16,66,31,52,56,-21,-100,97,39,64,26.57,26.49,8,-482,12,0.00
2013-8-17,60,26,54,59,-30,-100,98,39,75,26.59,26.53,7,-546,10,0.00
2013-8-18,71,31,59,64,-23,-100,99,42,66,26.62,26.53,7,-520,9,0.00
2013-8-19,66,31,61,64,-22,-100,98,44,88,26.61,26.53,8,-520,8,0.06
2013-8-20,73,34,57,65,-19,-100,98,41,72,26.62,26.55,6,-504,10,0.00
2013-8-21,72,33,62,65,-21,-100,96,41,75,26.66,26.56,5,-515,8,0.00
2013-8-22,75,37,65,64,-17,-100,91,35,58,26.61,26.50,12,-480,16,0.00
2013-8-23,73,36,63,64,-16,-100,97,40,69,26.53,26.46,14,-481,20,0.00
2013-8-24,70,34,58,58,-20,-100,96,34,54,26.72,26.55,8,-483,15,0.00
2013-8-25,70,21,46,57,-50,-100,98,23,60,26.77,26.71,5,-675,9,0.00
2013-8-26,72,34,49,60,-19,-100,98,36,59,26.73,26.58,14,-480,19,0.00
2013-8-27,73,35,63,64,-17,-100,91,40,67,26.59,26.50,16,-484,22,0.00
2013-8-28,76,37,67,66,-16,-100,89,38,65,26.51,26.42,14,-486,18,0.00
2013-8-29,78,37,69,65,-18,-100,85,35,55,26.48,26.39,22,-490,22,0.00
2013-8-30,73,32,64,67,-22,-100,98,42,81,26.51,26.43,3,-530,8,0.00
2013-8-31,76,34,64,67,-22,-100,97,38,70,26.44,26.38,11,-528,15,0.00
2013-9-3,72,47,67,62,7,-100,83,47,61,26.45,26.38,17,-328,22,0.00
2013-9-4,76,34,55,64,-24,-100,98,31,42,26.57,26.45,7,-516,14,0.00
2013-9-5,73,35,52,59,-21,-100,98,32,39,26.59,26.53,14,-480,18,0.00
2013-9-6,71,32,52,61,-24,-100,99,37,66,26.62,26.53,7,-520,10,0.00
2013-9-7,73,34,54,61,-21,-100,98,37,54,26.56,26.46,13,-492,15,0.00
2013-9-8,74,34,61,62,-21,-100,97,36,59,26.48,26.42,11,-502,17,0.00
2013-9-9,75,34,54,65,-20,-100,98,39,69,26.61,26.48,8,-509,14,0.00
2013-9-10,76,34,54,67,-23,-100,99,36,62,26.68,26.61,7,-526,9,0.08
2013-9-11,78,34,58,65,-22,-100,99,38,62,26.67,26.56,13,-518,27,0.26
2013-9-12,73,34,63,66,-21,-100,98,39,70,26.55,26.34,13,-513,18,0.00
2013-9-13,66,31,59,55,-26,-100,84,32,51,26.35,26.28,16,-506,25,0.00
2013-9-14,65,28,47,53,-28,-100,89,34,63,26.52,26.34,7,-514,10,0.00
2013-9-15,66,30,46,58,-26,-100,99,37,65,26.60,26.52,8,-519,17,0.00
2013-9-16,69,31,53,57,-24,-100,98,36,57,26.59,26.53,12,-507,19,0.00
2013-9-17,58,26,53,52,-30,-100,87,37,71,26.68,26.59,7,-530,14,0.00
2013-9-18,62,24,50,56,-36,-100,94,36,77,26.65,26.55,5,-580,10,0.00
2013-9-19,68,20,58,61,-51,-100,97,25,75,26.58,26.52,9,-689,15,0.00
2013-9-20,73,31,58,63,-27,-100,98,35,64,26.52,26.39,13,-540,17,0.00
2013-9-21,62,17,61,61,-55,-100,96,26,91,26.39,26.17,13,-716,18,0.46
2013-9-22,62,27,51,51,-32,-100,87,32,60,26.34,26.19,13,-539,18,0.00
2013-9-23,65,27,44,55,-29,-100,98,38,71,26.45,26.34,7,-531,10,0.00
2013-9-24,68,28,51,58,-30,-100,95,34,67,26.47,26.36,0,-553,0,0.00
2013-9-25,56,18,55,55,-50,-100,97,31,93,26.36,26.28,0,-673,0,0.15
2013-9-26,64,25,54,54,-37,-100,95,30,59,26.45,26.30,0,-583,0,0.00
2013-9-27,67,27,42,56,-32,-100,99,34,66,26.57,26.46,7,-557,10,0.00
2013-9-28,60,26,49,53,-31,-100,96,38,75,26.62,26.55,5,-541,10,0.00
2013-9-29,63,26,48,55,-32,-100,94,35,72,26.55,26.44,5,-551,9,0.00
2013-9-30,65,23,53,56,-40,-100,96,31,67,26.49,26.42,5,-608,9,0.00
2013-10-1,68,31,44,56,-24,-100,99,35,58,26.54,26.47,8,-498,14,0.00
2013-10-2,71,29,45,58,-31,-100,99,32,54,26.58,26.51,12,-551,18,0.00
2013-10-3,71,30,50,60,-28,-100,98,35,58,26.56,26.50,6,-541,11,0.00
2013-10-4,71,29,50,61,-32,-100,99,33,61,26.59,26.53,12,-566,17,0.00
2013-10-5,75,31,49,61,-28,-100,99,32,59,26.58,26.50,6,-546,10,0.00
2013-10-6,70,29,52,60,-31,-100,97,34,64,26.51,26.34,10,-561,18,0.00
2013-10-7,58,22,52,55,-39,-100,95,34,71,26.42,26.25,17,-585,23,0.00
2013-10-8,59,24,41,47,-36,-100,93,30,59,26.58,26.41,9,-551,17,0.00
2013-10-9,64,24,37,46,-41,-100,98,25,50,26.59,26.51,4,-584,9,0.00
2013-10-10,60,24,47,49,-39,-100,90,26,50,26.51,26.42,19,-574,23,0.00
2013-10-11,64,27,54,49,-35,-100,81,27,48,26.44,26.38,19,-553,25,0.00
2013-10-12,61,24,56,55,-37,-100,89,33,77,26.50,26.39,12,-586,18,0.00
2013-10-13,63,23,57,59,-40,-100,94,34,81,26.61,26.51,8,-614,11,0.11
2013-10-14,59,25,55,56,-33,-100,96,40,85,26.62,26.55,6,-567,9,0.00
2013-10-15,61,24,49,54,-34,-100,97,38,74,26.57,26.46,5,-561,11,0.00
2013-10-16,64,24,44,55,-38,-100,98,32,65,26.47,26.36,7,-588,11,0.00
2013-10-17,63,19,55,58,-51,-100,96,27,83,26.37,26.25,0,-691,0,0.00
2013-10-18,61,24,45,51,-38,-100,88,30,47,26.39,26.31,10,-571,16,0.00
2013-10-19,58,18,52,51,-54,-100,94,23,50,26.35,26.24,17,-682,22,0.00
2013-10-20,57,22,37,39,-44,-100,85,21,28,26.45,26.30,12,-582,14,0.00
2013-10-21,59,21,36,49,-43,-100,98,28,40,26.47,26.38,6,-601,13,0.00
2013-10-22,60,23,51,46,-42,-100,66,23,48,26.37,26.21,11,-588,16,0.00
2013-10-23,44,15,36,38,-53,-100,83,25,59,26.31,26.11,18,-638,29,0.00
2013-10-24,42,11,39,30,-65,-100,67,17,58,26.44,26.30,10,-724,19,0.00
2013-10-25,33,17,27,24,-31,-100,83,42,67,26.61,26.46,24,-436,33,0.00
2013-10-26,51,18,20,29,-50,-100,92,19,20,26.58,26.38,11,-592,16,0.00
2013-10-27,59,22,43,42,-42,-100,76,24,40,26.45,26.36,11,-581,21,0.00
2013-10-28,58,20,50,49,-46,-100,85,28,62,26.60,26.46,6,-626,11,0.00
2013-10-29,60,23,49,48,-41,-100,92,29,62,26.67,26.59,7,-594,10,0.00
2013-10-30,67,19,50,51,-55,-100,91,19,54,26.63,26.55,10,-696,17,0.00
2013-10-31,57,21,51,52,-43,-100,95,31,74,26.56,26.27,21,-618,24,0.00
2013-11-1,68,25,54,54,-42,-100,89,22,24,26.24,26.09,10,-591,17,0.01
2013-11-2,51,19,45,40,-47,-100,78,24,50,26.33,26.13,18,-600,24,0.00
2013-11-3,45,16,36,32,-48,-100,83,25,54,26.64,26.31,17,-598,27,0.00
2013-11-4,47,17,29,29,-49,-100,94,22,41,26.76,26.65,7,-588,12,0.00
2013-11-5,50,18,31,36,-49,-100,89,21,26,26.77,26.71,6,-599,13,0.00
2013-11-6,59,22,48,48,-40,-100,97,31,62,26.70,26.49,11,-587,15,0.00
2013-11-7,55,18,40,51,-45,-100,96,31,67,26.48,26.36,23,-610,31,0.00
2013-11-8,41,15,33,21,-53,-100,61,18,39,26.57,26.42,18,-600,25,0.00
2013-11-9,54,18,23,30,-51,-100,91,19,26,26.60,26.48,7,-599,16,0.00
2013-11-10,55,20,44,34,-50,-100,66,17,32,26.54,26.47,20,-611,25,0.00
2013-11-11,54,19,24,23,-53,-100,82,13,18,26.60,26.46,6,-603,10,0.00
2013-11-12,45,12,26,33,-57,-100,87,25,47,26.64,26.39,25,-662,38,0.00
2013-11-13,34,12,18,16,-54,-100,81,22,41,26.70,26.60,22,-588,32,0.00
2013-11-14,54,17,21,23,-56,-100,90,12,16,26.67,26.58,14,-612,17,0.00
2013-11-15,50,12,26,44,-62,-100,90,20,53,26.59,26.50,5,-715,14,0.00
2013-11-16,54,18,44,51,-46,-100,99,34,78,26.57,26.51,7,-634,8,0.00
2013-11-17,54,14,51,52,-59,-100,100,26,89,26.53,26.27,10,-728,18,0.00
2013-11-18,54,19,48,40,-51,-100,62,18,39,26.34,26.26,14,-631,26,0.00
2013-11-19,45,16,30,22,-51,-100,72,20,33,26.52,26.32,17,-590,22,0.00
2013-11-20,42,14,28,24,-53,-100,75,22,45,26.68,26.51,11,-609,12,0.00
2013-11-21,50,15,36,46,-54,-100,96,28,77,26.73,26.66,2,-676,9,0.00
2013-11-22,59,19,49,54,-48,-100,99,30,75,26.68,26.47,9,-655,10,0.00
2013-11-23,43,12,37,41,-61,-100,93,23,65,26.50,26.41,16,-702,28,0.00
2013-11-24,24,8,14,8,-59,-100,76,20,35,26.64,26.42,22,-599,40,0.00
2013-11-25,32,11,17,12,-58,-100,80,16,21,26.65,26.52,4,-599,8,0.00
2013-11-26,40,6,39,39,-77,-100,96,16,96,26.51,25.99,4,-832,14,0.61
2013-11-27,24,4,20,20,-80,-100,86,14,76,26.34,25.94,29,-826,40,0.00
2013-11-28,45,14,20,14,-62,-100,59,9,16,26.65,26.35,13,-636,15,0.00
2013-11-29,49,15,28,24,-58,-100,55,13,22,26.79,26.64,13,-633,15,0.00
2013-11-30,43,13,21,23,-54,-100,90,22,44,26.78,26.57,5,-620,9,0.00
2013-12-1,52,17,30,35,-55,-100,93,17,27,26.57,26.32,9,-644,14,0.00
2013-12-2,48,14,32,36,-55,-100,91,24,58,26.32,26.15,8,-659,9,0.00
2013-12-3,53,16,35,43,-53,-100,96,26,66,26.29,26.18,7,-665,13,0.00
2013-12-4,52,17,44,49,-49,-100,99,32,86,26.42,26.28,6,-652,8,0.00
2013-12-5,61,20,50,56,-47,-100,99,31,79,26.45,26.38,9,-658,13,0.00
2013-12-6,62,17,60,59,-57,-100,96,24,84,26.41,26.33,11,-724,22,0.00
2013-12-7,43,14,37,38,-53,-100,92,30,81,26.64,26.37,17,-653,22,0.00
2013-12-8,29,0,29,28,-99,-100,96,1,96,26.62,26.46,3,-988,8,0.00
2013-12-9,56,18,46,55,-48,-100,100,33,81,26.45,26.34,19,-644,22,0.00
2013-12-10,43,12,27,41,-55,-100,94,27,66,26.51,26.23,24,-645,34,0.00
2013-12-11,45,14,20,18,-62,-100,77,11,17,26.61,26.50,12,-650,19,0.00
2013-12-12,32,10,21,15,-61,-100,74,16,27,26.58,26.48,21,-631,30,0.00
2013-12-13,45,14,24,19,-59,-100,73,14,25,26.55,26.48,9,-640,13,0.00
2013-12-14,33,1,32,31,-94,-100,94,4,93,26.49,26.08,2,-957,12,0.13
2013-12-15,31,8,27,27,-66,-100,86,22,75,26.33,26.06,20,-723,34,0.00
2013-12-16,45,15,30,25,-56,-100,74,18,39,26.40,26.31,15,-639,22,0.00
2013-12-17,50,16,36,30,-56,-100,77,17,42,26.40,26.24,15,-653,24,0.00
2013-12-18,38,12,25,9,-62,-100,51,11,19,26.53,26.33,18,-628,25,0.00
2013-12-19,61,16,27,28,-62,-100,86,10,20,26.57,26.50,9,-690,12,0.00
2013-12-20,59,18,29,34,-52,-100,83,19,30,26.51,26.44,7,-630,14,0.00
2013-12-21,56,7,40,52,-80,-100,96,12,85,26.45,26.36,11,-862,18,0.00
2013-12-22,-200,0,200,-100,-100,-100,0,0,100,26.45,26.32,0,-999,0,0.00
2013-12-23,48,14,36,43,-55,-100,93,29,84,26.45,26.35,23,-672,29,0.00
2013-12-24,26,9,21,21,-55,-100,86,28,66,26.58,26.43,23,-610,32,0.00
2013-12-25,33,10,14,15,-62,-100,88,15,30,26.64,26.53,6,-641,9,0.00
2013-12-26,39,12,30,22,-59,-100,62,18,39,26.58,26.49,20,-652,23,0.00
2013-12-27,45,14,19,24,-58,-100,90,16,26,26.67,26.57,12,-640,13,0.00
2013-12-28,49,14,20,29,-57,-100,87,19,26,26.64,26.41,3,-641,5,0.00
2013-12-29,46,14,40,43,-54,-100,98,28,76,26.40,26.11,16,-664,25,0.00
2013-12-30,36,4,32,32,-85,-100,90,10,86,26.39,26.25,16,-870,19,0.00
2013-12-31,33,12,28,17,-58,-100,60,19,40,26.59,26.37,19,-624,28,0.00
2014-1-1,40,12,19,25,-57,-100,89,21,46,26.58,26.38,7,-644,10,0.00
2014-1-2,42,10,30,40,-63,-100,95,25,86,26.38,25.97,4,-725,20,0.02